Content
SEND FEEDBACK

Daily
Averages
Monthly
Summary
Germany

BERLIN, GERMANY


Home > Europe > Germany
Elevation: 157 feet     Latitude: 52 23N     Longitude: 013 31E

WEATHER
 
SELECT A DAY
Number of Records: 257,534;   Date Range: 7/3/96 - 9/30/14
 
SHARE

PRINT THIS DATA

[ ← Previous Day ]
WEATHER ALMANAC - FEBRUARY 19, 2013
[ Next Day → ]
[ °C ]   °F
Weather ElementAverageHighLow
Temperature32.7 °F35.6 °F (1:50 pm)32 °F (12:50 am)
Dewpoint30.3 °F32 °F (3:20 am)28.4 °F (3:20 pm)
Humidity91.1 %100 % (3:20 am)81 % (1:50 pm)
Barometer29.90 in30.01 in (10:20 pm)29.80 in (7:20 am)
Wind Speed13.7 mph16.1 mph (5:20 am)
Weather ElementAverage
Visibility3.9 mi
Wind DirectionWNW (302.3 °)

Weather ElementTotal
Precipitation---
Heating Degree Days31.2 (Base 65)
Averaged from 47 records on February 19, 2013
WEATHER CONDITIONS BREAKOUT
WIND DIRECTION BREAKOUT
WEATHER BY HOUR - FEBRUARY 19, 2013
[ °C ]   °F
Local TimeTemperatureDewpointHumidityBarometerVisibilityWind DirectionWind SpeedGust SpeedPrecipitationEventsConditions
12:50 AM32.0 °F30.2 °F93 %29.98 in1.8 miWSW (250°)11.5 mphSnowLight Snow
1:20 AM32.0 °F30.2 °F93 %29.98 in1.6 miWSW (240°)12.7 mphSnowLight Snow
1:50 AM32.0 °F30.2 °F93 %29.95 in1.8 miWSW (250°)12.7 mphSnowLight Snow
2:20 AM32.0 °F30.2 °F93 %29.95 in1.6 miWSW (250°)12.7 mphSnowLight Snow
2:50 AM32.0 °F30.2 °F93 %29.92 in1.1 miWSW (240°)12.7 mphSnowSnow
3:20 AM32.0 °F32.0 °F100 %29.92 in0.9 miWSW (250°)12.7 mphSnowSnow
3:50 AM32.0 °F32.0 °F100 %29.89 in0.8 miWest (260°)12.7 mphSnowSnow
4:20 AM32.0 °F32.0 °F100 %29.89 in0.8 miWest (260°)12.7 mphSnowSnow
4:50 AM32.0 °F32.0 °F100 %29.86 in1.0 miWest (260°)13.8 mphSnowSnow
5:20 AM32.0 °F32.0 °F100 %29.86 in0.9 miWest (260°)16.1 mphSnowSnow
5:50 AM32.0 °F32.0 °F100 %29.83 in0.9 miWest (260°)13.8 mphSnowSnow
6:20 AM32.0 °F32.0 °F100 %29.83 in0.9 miWest (260°)15.0 mphSnowSnow
6:50 AM32.0 °F32.0 °F100 %29.83 in1.2 miWest (270°)16.1 mphSnowLight Snow
7:20 AM32.0 °F32.0 °F100 %29.80 in1.1 miWest (270°)15.0 mphSnowLight Snow
7:50 AM32.0 °F32.0 °F100 %29.80 in1.7 miWest (270°)13.8 mphSnowLight Snow
8:20 AM33.8 °F32.0 °F93 %29.80 in1.9 miWest (280°)11.5 mphSnowLight Snow
8:50 AM32.0 °F32.0 °F100 %29.80 in1.7 miWest (280°)12.7 mphSnowLight Snow
9:20 AM33.8 °F32.0 °F93 %29.80 in1.9 miWest (280°)12.7 mphSnowLight Snow
9:50 AM33.8 °F32.0 °F93 %29.80 in1.9 miWNW (290°)12.7 mphSnowLight Snow
10:20 AM33.8 °F32.0 °F93 %29.80 in3.1 miNW (310°)12.7 mphSnowLight Snow
10:50 AM33.8 °F32.0 °F93 %29.80 in5.0 miNW (320°)11.5 mphSnowLight Snow
11:20 AM33.8 °F32.0 °F93 %29.83 in6.2 miNNW (340°)12.7 mphSnowLight Snow
11:50 AM33.8 °F32.0 °F93 %29.83 in6.2 miNorth (360°)12.7 mphSnowLight Snow
12:20 PM33.8 °F32.0 °F93 %29.83 in2.5 miNorth (350°)11.5 mphSnowLight Snow Showers
12:50 PM33.8 °F30.2 °F87 %29.86 in6.2 miNorth (360°)15.0 mphMostly Cloudy
1:20 PM33.8 °F30.2 °F87 %29.86 in6.2 miNorth (360°)16.1 mphMostly Cloudy
1:50 PM35.6 °F30.2 °F81 %29.86 in6.2 miNorth (350°)16.1 mphMostly Cloudy
2:20 PM35.6 °F30.2 °F81 %29.86 in6.2 miNorth (360°)13.8 mphMostly Cloudy
2:50 PM33.8 °F30.2 °F87 %29.89 in6.2 miNorth (350°)15.0 mphMostly Cloudy
3:20 PM33.8 °F28.4 °F81 %29.89 in6.2 miNorth (360°)15.0 mphMostly Cloudy
3:50 PM33.8 °F30.2 °F87 %29.89 in5.0 miNorth (10°)13.8 mphSnowLight Snow Showers
4:20 PM33.8 °F28.4 °F81 %29.89 in6.2 miNorth (350°)15.0 mphMostly Cloudy
4:50 PM33.8 °F28.4 °F81 %29.92 in6.2 miNNW (340°)15.0 mphSnowLight Snow Showers
5:20 PM32.0 °F28.4 °F87 %29.92 in6.2 miNNW (340°)13.8 mphMostly Cloudy
5:50 PM32.0 °F28.4 °F87 %29.92 inNNW (340°)12.7 mphSnowLight Snow Showers
6:20 PM32.0 °F28.4 °F87 %29.95 in6.2 miNNW (330°)16.1 mphSnowLight Snow
6:50 PM32.0 °F28.4 °F87 %29.95 in6.2 miNNW (340°)15.0 mphSnowLight Snow
7:20 PM32.0 °F28.4 °F87 %29.95 in6.2 miNNW (330°)13.8 mphSnowLight Snow
7:50 PM32.0 °F28.4 °F87 %29.95 in6.2 miNNW (330°)15.0 mphSnowLight Snow
8:20 PM32.0 °F28.4 °F87 %29.95 in6.2 miNNW (330°)12.7 mphSnowLight Snow
8:50 PM32.0 °F28.4 °F87 %29.98 in3.7 miNNW (330°)12.7 mphSnowLight Snow
9:20 PM32.0 °F28.4 °F87 %29.98 in6.2 miNNW (340°)12.7 mphSnowLight Snow
9:50 PM32.0 °F28.4 °F87 %29.98 in6.2 miNNW (340°)12.7 mphSnowLight Snow
10:20 PM32.0 °F28.4 °F87 %30.01 in6.2 miNNW (340°)15.0 mphSnowLight Snow
10:50 PM32.0 °F28.4 °F87 %30.01 in6.2 miNNW (340°)16.1 mphSnowLight Snow
11:20 PM32.0 °F28.4 °F87 %30.01 in6.2 miNNW (340°)12.7 mphSnowLight Snow
11:50 PM32.0 °F28.4 °F87 %30.01 in6.2 miNNW (340°)13.8 mphSnowLight Snow
Hourly data recorded from EDDB, located miles away from Berlin, Germany







STORIES FROM OUR PARTNERS